JCSAT-3A

Last updated on Sat Sep 05 2026 00:03:01 GMT+0000 (Coordinated Universal Time)

1 29272U 06033A 26247.62124009 -.00000352 00000+0 00000+0 0 9998 2 29272 0.0414 283.8927 0002003 250.3590 161.1494 1.00271367 48534
UTC large
Height (km)
Speed (km/s)
/
Latitude / Longitude
Inclination (degrees)
Orbital Period (minutes)
Azimuth
Elevation
Range (km)
Doppler Factor

Next 0 passes for location: London (51.5072 / 0.1276)

No passes found over London.
JCSAT-3A